Eelde, Netherlands

11:18 PM CEST on April 30, 2017 (GMT +0200)
Eelde

Weather History for EHGG - May, 2012

Change the Weather History Date:

Monday, May 7, 2012

  Actual Average Record
Temperature  
Mean Temperature 44 °F -  
Max Temperature 56 °F 63 °F 82 °F (2011)
Min Temperature 31 °F 44 °F 31 °F (2012)
Degree Days  
Heating Degree Days 22    
Moisture  
Dew Point 36 °F    
Average Humidity 68    
Maximum Humidity 100    
Minimum Humidity 37    
Precipitation  
Precipitation 0.00 in 0.08 in - ()
Sea Level Pressure  
Sea Level Pressure 30.05 in    
Wind  
Wind Speed 4 mph ()    
Max Wind Speed 9 mph    
Max Gust Speed -    
Visibility 6.5 miles    
Events      
Averages and records for this station are not official NWS values.
T = Trace of Precipitation, MM = Missing Value Source: Averaged Metar Reports

Daily Weather History Graph

Daily Weather History Graph

Search for Another Location

Airport or City:

Trip Planner

Search our weather history database for the weather conditions in past years. The results will help you decide how hot, cold, wet, or windy it might be!

Date:

Astronomy

May. 07, 2012 Rise Set
Actual Time 5:48 AM CEST 9:13 PM CEST
Civil Twilight 5:06 AM CEST 9:55 PM CEST
Nautical Twilight 4:09 AM CEST 10:52 PM CEST
Astronomical Twilight 2:48 AM CEST 12:17 AM CEST
Moon 11:22 PM CEST (5/7) 6:26 AM CEST (5/7)
Length of Visible Light 16h 49m
Length of Day
15h 25m
Full, 98% of the Moon is Illuminated
May 7
Full
May 12
Last Quarter
May 21
New
May 28
First Quarter
Jun 4
Full

Hourly Weather History & Observations

Time (CEST) Temp. Windchill Dew Point Humidity Pressure Visibility Wind Dir Wind Speed Gust Speed Precip Events Conditions
12:25 AM 44.6 °F 42.2 °F 35.6 °F 71% 30.01 in 6.2 mi NE 4.6 mph - N/A   Unknown
12:55 AM 44.6 °F 42.2 °F 35.6 °F 71% 30.01 in 6.2 mi NNE 4.6 mph - N/A   Unknown
1:25 AM 42.8 °F 40.1 °F 35.6 °F 76% 30.01 in 6.2 mi North 4.6 mph - N/A   Unknown
1:55 AM 39.2 °F 37.0 °F 33.8 °F 81% 30.01 in 6.2 mi NE 3.5 mph - N/A   Unknown
2:00 AM 40 °F - 35 °F 75% 30.03 in 25 mi NE 4.5 mph - -  
2:25 AM 35.6 °F 32.8 °F 30.2 °F 81% 30.01 in 6.2 mi North 3.5 mph - N/A   Unknown
2:55 AM 35.6 °F 32.8 °F 32.0 °F 87% 30.04 in 6.2 mi NNW 3.5 mph - N/A   Mostly Cloudy
3:25 AM 37.4 °F - 33.8 °F 87% 30.04 in 6.2 mi Variable 1.2 mph - N/A   Partly Cloudy
3:55 AM 33.8 °F - 32.0 °F 93% 30.04 in 6.2 mi North 2.3 mph - N/A   Unknown
4:25 AM 35.6 °F - 33.8 °F 93% 30.04 in 6.2 mi Variable 1.2 mph - N/A   Unknown
4:55 AM 32.0 °F - 30.2 °F 93% 30.04 in 6.2 mi NNW 1.2 mph - N/A   Unknown
5:00 AM 32 °F - 30 °F 89% 30.05 in 12 mi NW 2.2 mph - -  
5:25 AM 32.0 °F - 32.0 °F 100% 30.04 in 6.2 mi NW 2.3 mph - N/A   Unknown
5:55 AM 33.8 °F - 32.0 °F 93% 30.04 in 6.2 mi Variable 1.2 mph - N/A   Unknown
6:25 AM 32.0 °F 28.7 °F 30.2 °F 93% 30.04 in - WNW 3.5 mph - N/A   Partly Cloudy
6:55 AM 33.8 °F 30.8 °F 32.0 °F 93% 30.04 in 6.2 mi NW 3.5 mph - N/A   Unknown
7:25 AM 37.4 °F - 37.4 °F 100% 30.06 in 6.2 mi NW 2.3 mph - N/A   Unknown
7:55 AM 44.6 °F 43.1 °F 41.0 °F 87% 30.06 in 6.2 mi North 3.5 mph - N/A   Partly Cloudy
8:00 AM 45 °F - 38 °F 70% 30.08 in 25 mi North 4.5 mph - -  
8:25 AM 46.4 °F 43.5 °F 35.6 °F 66% 30.06 in 6.2 mi NNE 5.8 mph - N/A   Scattered Clouds
8:55 AM 46.4 °F 44.3 °F 35.6 °F 66% 30.06 in 6.2 mi NNE 4.6 mph - N/A   Unknown
9:25 AM 48.2 °F - 35.6 °F 62% 30.06 in 6.2 mi ENE 5.8 mph - N/A   Unknown
9:55 AM 48.2 °F - 35.6 °F 62% 30.06 in 6.2 mi NE 5.8 mph - N/A   Scattered Clouds
10:25 AM 48.2 °F - 33.8 °F 58% 30.06 in 6.2 mi North 5.8 mph - N/A   Partly Cloudy
10:55 AM 48.2 °F - 35.6 °F 62% 30.06 in 6.2 mi Variable 3.5 mph - N/A   Overcast
11:25 AM 50.0 °F - 35.6 °F 58% 30.09 in 6.2 mi Variable 4.6 mph - N/A   Overcast
11:55 AM 50.0 °F - 37.4 °F 62% 30.09 in 6.2 mi NNE 8.1 mph - N/A   Partly Cloudy
12:25 PM 51.8 °F - 37.4 °F 58% 30.09 in 6.2 mi Variable 4.6 mph - N/A   Unknown
12:55 PM 53.6 °F - 35.6 °F 51% 30.09 in 6.2 mi ESE 3.5 mph - N/A   Mostly Cloudy
1:25 PM 51.8 °F - 37.4 °F 58% 30.09 in 6.2 mi NNE 6.9 mph - N/A   Overcast
1:55 PM 53.6 °F - 33.8 °F 47% 30.06 in 6.2 mi Variable 3.5 mph - N/A   Mostly Cloudy
2:00 PM 54 °F - 37 °F 40% 30.09 in 25 mi NNE 4.5 mph - -   Scattered Clouds
2:25 PM 51.8 °F - 35.6 °F 54% 30.06 in 6.2 mi NE 5.8 mph - N/A   Partly Cloudy
2:55 PM 55.4 °F - 39.2 °F 54% 30.06 in 6.2 mi Variable 5.8 mph - N/A   Scattered Clouds
3:25 PM 53.6 °F - 39.2 °F 58% 30.06 in 6.2 mi NE 5.8 mph - N/A   Partly Cloudy
3:55 PM 55.4 °F - 35.6 °F 47% 30.06 in 6.2 mi NNE 4.6 mph - N/A   Unknown
4:25 PM 55.4 °F - 39.2 °F 54% 30.06 in 6.2 mi NE 4.6 mph - N/A   Unknown
4:55 PM 53.6 °F - 37.4 °F 54% 30.06 in 6.2 mi ENE 8.1 mph - N/A   Partly Cloudy
5:00 PM 53 °F - 34 °F 37% 30.08 in 22 mi East 4.5 mph - -   Mostly Cloudy
5:25 PM 53.6 °F - 35.6 °F 51% 30.06 in 6.2 mi East 5.8 mph - N/A   Partly Cloudy
5:55 PM 55.4 °F - 35.6 °F 47% 30.06 in 6.2 mi Variable 3.5 mph - N/A   Unknown
6:25 PM 55.4 °F - 39.2 °F 54% 30.04 in 6.2 mi ENE 8.1 mph - N/A   Scattered Clouds
6:55 PM 53.6 °F - 39.2 °F 58% 30.04 in 6.2 mi ENE 6.9 mph - N/A   Unknown
7:25 PM 53.6 °F - 37.4 °F 54% 30.04 in 6.2 mi East 9.2 mph - N/A   Unknown
7:55 PM 53.6 °F - 35.6 °F 51% 30.04 in 6.2 mi East 8.1 mph - N/A   Unknown
8:00 PM 53 °F - 37 °F 42% 30.05 in 28 mi East 6.7 mph - -  
8:25 PM 51.8 °F - 37.4 °F 58% 30.04 in 6.2 mi East 5.8 mph - N/A   Unknown
8:55 PM 50.0 °F - 37.4 °F 62% 30.04 in 6.2 mi East 8.1 mph - N/A   Unknown
9:25 PM 48.2 °F - 39.2 °F 71% 30.04 in 6.2 mi East 6.9 mph - N/A   Unknown
9:55 PM 48.2 °F - 39.2 °F 71% 30.04 in 6.2 mi East 8.1 mph - N/A   Unknown
10:25 PM 48.2 °F - 39.2 °F 71% 30.04 in 6.2 mi East 8.1 mph - N/A   Unknown
10:55 PM 46.4 °F 41.9 °F 39.2 °F 76% 30.04 in 6.2 mi East 9.2 mph - N/A   Unknown
11:00 PM 47 °F - 40 °F 69% 30.04 in 14 mi East 8.9 mph - -   Scattered Clouds
11:25 PM 46.4 °F 41.9 °F 39.2 °F 76% 30.04 in 6.2 mi East 9.2 mph - N/A   Unknown
11:55 PM 46.4 °F 41.9 °F 39.2 °F 76% 30.01 in 6.2 mi East 9.2 mph - N/A   Unknown